Search for airport 
image banner adimage banner adimage banner ad
image banner ad

9CL8 - Dcor Platform Eva

Located in Huntington Beach, United States

ICAO - 9CL8, IATA -

Data provided by Airmate  

General information

Coordinates: N33°39'42" W118°3'43"
Elevation is 79 feet MSL.
Magnetic variation is 14° East
View others Airports in California

Operational data

Special qualification required
Current time UTC:
Current local time:
Weather at : KSLI - Los Alamitos Aaf ( 14 km )
METAR: KSLI 210958Z AUTO 00000KT 9SM OVC010 17/16 A2992 RMK AO2 SLP135 T01690164
TAF: TAF KSLI 210500Z 2105/2211 VRB06KT 9999 SCT010 QNH2990INS BECMG 2110/2111 VRB06KT 9000 BR OVC010 QNH2991INS BECMG 2116/2117 VRB06KT 9999 NSW SCT010 QNH2990INS BECMG 2209/2210 VRB06KT 9000 BR BKN010 QNH2991INS TX20/2105Z TN15/2114Z
View NOTAMs / SUP AIP / TFR affecting this airport [VIEW]
Communications frequencies: [VIEW]

Runways:

Airport contact information

Address: Huntington Beach United States

Satellite view of 9CL8